Regional Weather Roundup
Issued by NWS Little Rock, AR

Home | Current Version | Previous Version | Graphics & Text | Print | Product List | Glossary On
Versions: 1 2 3 4 5 6 7 8 9 10 11 12 13 14 15 16 17 18 19 20 21 22 23 24 25 26 27 28 29 30 31 32 33 34 35 36 37 38 39 40 41 42 43 44 45 46 47 48 49
000
ASUS44 KLZK 231405
RWRLZK

WEATHER ROUNDUP FOR ARKANSAS
NATIONAL WEATHER SERVICE LITTLE ROCK AR
900 AM CDT SAT MAY 23 2015

NOTE: "FAIR" INDICATES FEW OR NO CLOUDS BELOW 12,000 FEET WITH NO
SIGNIFICANT WEATHER AND/OR OBSTRUCTIONS TO VISIBILITY.

ARZ001-003-010-029-231500-
NORTHWEST ARKANSAS

CITY           SKY/WX    TMP DP  RH WIND       PRES   REMARKS
FAYETTEVILLE   CLOUDY    61  58  90 CALM      30.25R
FORT SMITH     CLOUDY    60  57  89 E12       30.24R
HARRISON       RAIN      56  55  97 SE8       30.28S FOG
BENTONVILLE    CLOUDY    59  54  82 SE8       30.25R
ROGERS         LGT RAIN  58  56  93 SE10      30.26R
SILOAM SPGS    CLOUDY    61  54  77 E6        30.24S
HIGHFILL       CLOUDY    60  57  89 SE10      30.24R
SPRINGDALE     CLOUDY    59  57  94 SE7       30.27R
$$

ARZ004-005-016-231500-
NORTH CENTRAL ARKANSAS

CITY           SKY/WX    TMP DP  RH WIND       PRES   REMARKS
BATESVILLE     PTSUNNY   66  55  68 SE6       30.29R
FLIPPIN        PTSUNNY   59  54  82 SW3       30.28R
MTN HOME       CLOUDY    61  53  75 S8        30.28R
$$

ARZ040-041-231500-
WEST CENTRAL ARKANSAS

CITY           SKY/WX    TMP DP  RH WIND       PRES   REMARKS
MENA           CLOUDY    63  61  94 E5        30.25S
MOUNT IDA      CLOUDY    63  58  83 CALM      30.24R
$$

ARZ009-017-025-026-028-231500-
NORTHEAST ARKANSAS

CITY           SKY/WX    TMP DP  RH WIND       PRES   REMARKS
CORNING          N/A     64  55  72 SE8       30.30S
JONESBORO      PTSUNNY   66  55  67 E6        30.29S
NEWPORT        PTSUNNY   69  56  63 SE8       30.30R
WALNUT RIDGE   PTSUNNY   66  54  63 SE8       30.29S
BLYTHEVILLE    CLOUDY    67  54  63 E7        30.31R
$$

ARZ022-023-033-042-044-231500-
CENTRAL ARKANSAS

CITY           SKY/WX    TMP DP  RH WIND       PRES   REMARKS
LITTLE ROCK    PTSUNNY   68  56  65 SE6       30.27S
N LITTLE ROCK  PTSUNNY   65  59  79 SE5       30.27S
JACKSONVILLE   PTSUNNY   69  57  65 SE6       30.26S
SEARCY         PTSUNNY   68  56  65 E6        30.29R
HOT SPRINGS    CLOUDY    64  58  80 E6        30.26S
RUSSELLVILLE   CLOUDY    64  55  72 E3        30.26R
CLINTON        CLOUDY    59  57  94 CALM      30.30S
$$

ARZ036-231500-
EAST ARKANSAS

CITY           SKY/WX    TMP DP  RH WIND       PRES   REMARKS
WEST MEMPHIS   CLOUDY    65  54  67 SE5       30.29R
$$

ARZ050-053-066-070-073-231500-
SOUTHWEST ARKANSAS

CITY           SKY/WX    TMP DP  RH WIND       PRES   REMARKS
ARKADELPHIA    CLOUDY    66  62  87 VRB3      30.26S
CAMDEN         CLOUDY    68  57  68 NE3       30.25S
TEXARKANA      CLOUDY    65  60  84 CALM      30.23R
EL DORADO      SUNNY     71  60  68 E7        30.24R
DE QUEEN       CLOUDY    64  58  80 E7        30.21S
$$

ARZ056-057-069-231500-
SOUTHEAST ARKANSAS

CITY           SKY/WX    TMP DP  RH WIND       PRES   REMARKS
PINE BLUFF     PTSUNNY   70  57  63 SE9       30.27R
STUTTGART      CLOUDY    68  55  64 E6        30.28R
MONTICELLO     SUNNY     70  58  65 VRB5      30.26R

$$




USA.gov is the U.S. government's official web portal to all federal, state and local government web resources and services.